This is the latest recevied weather packets stored in our database for station/object K7CTM. If no packets are shown the sender has not sent any weather packets the latest 1 day(s).
| Time | Temp. | Humidity | Pressure | Rain* | Wind** | Luminosity | Snow |
|---|---|---|---|---|---|---|---|
| 1778108057 | 18.89° C | 22% | 1020 hPa | 0 mm | - | 460 W/m² | - |
| 1778105631 | 18.89° C | 25% | 1020.7 hPa | 0 mm | - | 594 W/m² | - |
| 1778105328 | 18.89° C | 24% | 1021 hPa | 0 mm | - | 609 W/m² | - |
| 1778101989 | 16.67° C | 23% | 1022 hPa | 0 mm | - | 721 W/m² | - |
| 1778101080 | 17.78° C | 25% | 1022 hPa | 0 mm | - | 747 W/m² | - |
| 1778098352 | 16.11° C | 26% | 1022.7 hPa | 0 mm | - | 840 W/m² | - |
| 1778097746 | 15° C | 26% | 1022.8 hPa | 0 mm | - | 680 W/m² | - |
| 1778097442 | 15.56° C | 25% | 1023.2 hPa | 0 mm | - | 768 W/m² | - |
| 1778096225 | 15° C | 30% | 1023.5 hPa | 0 mm | - | 833 W/m² | - |
| 1778095618 | 14.44° C | 28% | 1023.6 hPa | 0 mm | - | 865 W/m² | - |
| 1778094101 | 13.89° C | 28% | 1024.1 hPa | 0 mm | - | 862 W/m² | - |
| 1778093192 | 12.78° C | 31% | 1024.3 hPa | 0 mm | - | 853 W/m² | - |
| 1778092586 | 13.33° C | 28% | 1024.4 hPa | 0 mm | - | 857 W/m² | - |
| 1778091071 | 12.22° C | 27% | 1024.9 hPa | 0 mm | - | 833 W/m² | - |
| 1778090768 | 11.67° C | 29% | 1025.2 hPa | 0 mm | - | 830 W/m² | - |
| 1778089251 | 10.56° C | 35% | 1025.7 hPa | 0 mm | - | 582 W/m² | - |
| 1778088646 | 11.11° C | 35% | 1026 hPa | 0 mm | - | 893 W/m² | - |
| 1778087737 | 9.44° C | 36% | 1026.3 hPa | 0 mm | - | 759 W/m² | - |
| 1778086528 | 8.89° C | 38% | 1026.6 hPa | 0 mm | - | 723 W/m² | - |
| 1778085618 | 8.33° C | 39% | 1027 hPa | 0 mm | - | 688 W/m² | - |
| 1778085010 | 7.78° C | 38% | 1027.1 hPa | 0 mm | - | 672 W/m² | - |
| 1778084101 | 7.78° C | 44% | 1027.3 hPa | 0 mm | - | 634 W/m² | - |
| 1778083798 | 7.22° C | 45% | 1027.4 hPa | 0 mm | - | 621 W/m² | - |
| 1778081474 | 5.56° C | 53% | 1027.7 hPa | 0 mm | - | 510 W/m² | - |
| 1778080869 | 5° C | 55% | 1027.9 hPa | 0 mm | - | 480 W/m² | - |
* Rain latest hour (hover to see other rain measurements)
** Current wind speed in m/s (hover to see current wind gust speed)